SPCBI EPSY-EPKK

Flight info

Callsign SPCBI
Flight time N/A
Altitude 16500
Route EPSY/01 DCT EPSYE DCT EPSYZ DCT EPKKM DCT EPKKO DCT EPKKZ DCT EPKK/07
Aircraft SF50/L-SBDGRWY/LB2U2

Departure

Time 2026-04-20 20:13
Airport Olsztyn-Mazury Airport (EPSY)

Arrival

Time N/A
Airport Kraków John Paul II International Airport (EPKK)
Time Latitude Longitude Altitude Speed Heading
2026-04-20 20:03 53.48832 20.93574 460 ft 0 kts 123°
2026-04-20 20:08 53.48821 20.93585 460 ft 6 kts 180°
2026-04-20 20:09 53.48742 20.93546 460 ft 18 kts 201°
2026-04-20 20:09 53.48578 20.93467 460 ft 31 kts 198°
2026-04-20 20:09 53.48343 20.93332 460 ft 38 kts 199°
2026-04-20 20:09 53.48097 20.93197 460 ft 38 kts 198°
2026-04-20 20:10 53.47829 20.93046 448 ft 43 kts 198°
2026-04-20 20:10 53.47544 20.92884 443 ft 41 kts 199°
2026-04-20 20:10 53.47411 20.93023 443 ft 24 kts 107°
2026-04-20 20:10 53.47356 20.93263 437 ft 21 kts 139°
2026-04-20 20:11 53.47221 20.93234 443 ft 22 kts 199°
2026-04-20 20:11 53.47143 20.93167 433 ft 4 kts 38°
2026-04-20 20:11 53.47167 20.93197 443 ft 0 kts 18°
2026-04-20 20:11 53.47176 20.93202 444 ft 13 kts 19°
2026-04-20 20:12 53.47504 20.93386 442 ft 82 kts 18°
2026-04-20 20:12 53.48076 20.93706 678 ft 87 kts 18°
2026-04-20 20:12 53.48515 20.94312 960 ft 91 kts 83°
2026-04-20 20:13 53.47642 20.95810 1565 ft 90 kts 109°
2026-04-20 20:13 53.47473 20.96881 1920 ft 108 kts 92°
2026-04-20 20:13 53.47048 20.98109 2349 ft 138 kts 125°
2026-04-20 20:13 53.46392 20.99454 2791 ft 158 kts 121°
2026-04-20 20:14 53.45780 21.00995 3469 ft 158 kts 117°
2026-04-20 20:14 53.45207 21.02582 4146 ft 160 kts 117°
2026-04-20 20:14 53.44635 21.04194 4842 ft 161 kts 117°
2026-04-20 20:14 53.44060 21.05822 5528 ft 163 kts 117°
2026-04-20 20:15 53.43483 21.07450 6203 ft 165 kts 117°
2026-04-20 20:15 53.42865 21.09088 6861 ft 169 kts 123°
2026-04-20 20:15 53.41947 21.10367 7468 ft 178 kts 148°
2026-04-20 20:15 53.40752 21.11027 8079 ft 186 kts 168°
2026-04-20 20:16 53.39449 21.10820 8687 ft 192 kts 191°
2026-04-20 20:16 53.38145 21.10232 9301 ft 195 kts 193°
2026-04-20 20:16 53.36824 21.09677 9927 ft 197 kts 191°
2026-04-20 20:16 53.35469 21.09165 10483 ft 199 kts 190°
2026-04-20 20:17 53.34114 21.08666 11012 ft 202 kts 190°
2026-04-20 20:17 53.32733 21.08150 11535 ft 205 kts 190°
2026-04-20 20:17 53.31332 21.07621 12052 ft 207 kts 190°
2026-04-20 20:17 53.29938 21.07094 12554 ft 210 kts 190°
2026-04-20 20:18 53.28505 21.06554 13052 ft 212 kts 190°
2026-04-20 20:18 53.27055 21.06013 13538 ft 215 kts 189°
2026-04-20 20:18 53.25588 21.05467 14011 ft 217 kts 189°
2026-04-20 20:18 53.24102 21.04910 14435 ft 219 kts 189°
2026-04-20 20:19 53.22609 21.04347 14862 ft 220 kts 189°
2026-04-20 20:19 53.21112 21.03784 15276 ft 222 kts 189°
2026-04-20 20:19 53.19599 21.03219 15684 ft 223 kts 189°
2026-04-20 20:19 53.18079 21.02653 16079 ft 224 kts 189°
2026-04-20 20:20 53.16552 21.02085 16469 ft 226 kts 189°
2026-04-20 20:20 53.15000 21.01507 16704 ft 235 kts 189°
2026-04-20 20:20 53.13363 21.00902 16725 ft 243 kts 190°
2026-04-20 20:20 53.11705 21.00286 16718 ft 245 kts 190°
2026-04-20 20:21 53.10030 20.99662 16718 ft 247 kts 190°
2026-04-20 20:21 53.08351 20.99036 16713 ft 247 kts 190°
2026-04-20 20:21 53.06674 20.98411 16714 ft 247 kts 190°
2026-04-20 20:21 53.04995 20.97786 16714 ft 247 kts 190°
2026-04-20 20:22 53.03336 20.97168 16711 ft 247 kts 190°
2026-04-20 20:22 53.01656 20.96545 16711 ft 247 kts 190°
2026-04-20 20:22 52.99981 20.95923 16711 ft 247 kts 190°
2026-04-20 20:22 52.98305 20.95302 16708 ft 247 kts 190°
2026-04-20 20:23 52.96627 20.94682 16708 ft 247 kts 190°
2026-04-20 20:23 52.94952 20.94063 16708 ft 247 kts 190°
2026-04-20 20:23 52.93277 20.93446 16709 ft 247 kts 190°
2026-04-20 20:23 52.91598 20.92827 16705 ft 247 kts 190°
2026-04-20 20:24 52.89922 20.92196 16704 ft 247 kts 190°
2026-04-20 20:24 52.88247 20.91575 16704 ft 246 kts 190°
2026-04-20 20:24 52.86583 20.90969 16703 ft 244 kts 190°
2026-04-20 20:24 52.84923 20.90363 16703 ft 244 kts 190°
2026-04-20 20:25 52.83289 20.89761 16705 ft 243 kts 190°
2026-04-20 20:25 52.81636 20.89150 16704 ft 243 kts 190°
2026-04-20 20:25 52.79977 20.88538 16704 ft 244 kts 190°
2026-04-20 20:25 52.78316 20.87927 16700 ft 245 kts 190°
2026-04-20 20:26 52.76651 20.87317 16700 ft 245 kts 190°
2026-04-20 20:26 52.74985 20.86707 16700 ft 246 kts 190°
2026-04-20 20:26 52.73317 20.86095 16701 ft 246 kts 190°
2026-04-20 20:26 52.71648 20.85486 16702 ft 246 kts 190°
2026-04-20 20:27 52.69973 20.84876 16703 ft 246 kts 190°
2026-04-20 20:27 52.68302 20.84266 16703 ft 246 kts 190°
2026-04-20 20:27 52.66631 20.83655 16704 ft 246 kts 190°
2026-04-20 20:27 52.64961 20.83046 16704 ft 246 kts 190°
2026-04-20 20:28 52.63295 20.82441 16702 ft 243 kts 191°
2026-04-20 20:28 52.61645 20.81844 16701 ft 242 kts 191°
2026-04-20 20:28 52.60000 20.81247 16699 ft 242 kts 191°
2026-04-20 20:28 52.58346 20.80906 16690 ft 240 kts 177°
2026-04-20 20:29 52.56704 20.80415 16686 ft 244 kts 205°
2026-04-20 20:29 52.55328 20.78791 16691 ft 244 kts 221°
2026-04-20 20:29 52.54059 20.76924 16694 ft 245 kts 223°
2026-04-20 20:29 52.52800 20.75029 16696 ft 245 kts 223°
2026-04-20 20:30 52.51544 20.73135 16696 ft 245 kts 223°
2026-04-20 20:30 52.50285 20.71240 16696 ft 245 kts 223°
2026-04-20 20:30 52.49044 20.69375 16697 ft 245 kts 223°
2026-04-20 20:30 52.47786 20.67486 16696 ft 245 kts 223°
2026-04-20 20:31 52.46528 20.65596 16698 ft 245 kts 223°
2026-04-20 20:31 52.45268 20.63708 16698 ft 245 kts 223°
2026-04-20 20:31 52.44009 20.61822 16684 ft 245 kts 223°
2026-04-20 20:31 52.42768 20.59960 16520 ft 232 kts 223°
2026-04-20 20:32 52.41573 20.58184 15433 ft 235 kts 223°
2026-04-20 20:32 52.40367 20.56393 14486 ft 232 kts 223°
2026-04-20 20:32 52.39180 20.54629 13549 ft 229 kts 223°
2026-04-20 20:32 52.38115 20.53042 12685 ft 226 kts 223°
2026-04-20 20:33 52.36974 20.51329 11741 ft 223 kts 223°